When you browse on this site, cookies collect data to enhance your experience and personalize the content and advertising you see.
Visit our Privacy Policy to learn more. By continuing to use the site, you agree to this use of cookies and data.
  • en Suisse
  • Liste des pays
  • À 7 jours
  • Température de l'eau
  • Carte météo
  • Widgets météo
  • user-avatar
    Se connecter

    Météo par heure à Tolna

    Ce jour, 18 Octobre, Vendredi

    Heure Température Précipitation Vent Pression Humidité
    00:00 +15°C° 0 mm 0 m/s 754 mmHg 72%
    01:00 +16°C° 0 mm 1 m/s 754 mmHg 76%
    02:00 +16°C° 0 mm 1 m/s 754 mmHg 77%
    03:00 +15°C° 0 mm 1 m/s 754 mmHg 78%
    04:00 +15°C° 0 mm 1 m/s 754 mmHg 78%
    05:00 +15°C° 0 mm 1 m/s 754 mmHg 78%
    06:00 +15°C° 0 mm 1 m/s 754 mmHg 78%
    07:00 +16°C° 0 mm 1 m/s 754 mmHg 82%
    08:00 +19°C° 0 mm 1 m/s 754 mmHg 75%
    09:00 +19°C° 0 mm 2 m/s 754 mmHg 68%
    10:00 +21°C° 0 mm 2 m/s 754 mmHg 61%
    11:00 +22°C° 0 mm 3 m/s 754 mmHg 55%
    12:00 +22°C° 0 mm 3 m/s 754 mmHg 49%
    13:00 +24°C° 0 mm 3 m/s 753 mmHg 44%
    14:00 +24°C° 0 mm 3 m/s 753 mmHg 46%
    15:00 +22°C° 0 mm 3 m/s 753 mmHg 49%
    16:00 +23°C° 0 mm 2 m/s 753 mmHg 51%
    17:00 +20°C° 0 mm 2 m/s 753 mmHg 55%
    18:00 +19°C° 0 mm 2 m/s 753 mmHg 58%
    19:00 +18°C° 0 mm 2 m/s 753 mmHg 62%
    20:00 +18°C° 0 mm 2 m/s 753 mmHg 63%
    21:00 +17°C° 0 mm 2 m/s 753 mmHg 63%
    22:00 +17°C° 0 mm 2 m/s 753 mmHg 64%
    23:00 +17°C° 0 mm 2 m/s 753 mmHg 64%

    Demain, 19 Octobre, Samedi

    Heure Température Précipitation Vent Pression Humidité
    00:00 +16°C° 0 mm 2 m/s 753 mmHg 65%
    01:00 +16°C° 0 mm 3 m/s 754 mmHg 66%
    02:00 +16°C° 0 mm 2 m/s 753 mmHg 67%
    03:00 +15°C° 0 mm 2 m/s 753 mmHg 68%
    04:00 +15°C° 0 mm 2 m/s 753 mmHg 69%
    05:00 +15°C° 0 mm 2 m/s 753 mmHg 69%
    06:00 +15°C° 0 mm 2 m/s 753 mmHg 70%
    07:00 +15°C° 0 mm 2 m/s 753 mmHg 70%
    08:00 +17°C° 0 mm 2 m/s 753 mmHg 62%
    09:00 +19°C° 0 mm 3 m/s 753 mmHg 54%
    10:00 +22°C° 0 mm 3 m/s 753 mmHg 46%
    11:00 +24°C° 0 mm 3 m/s 753 mmHg 44%
    12:00 +25°C° 0 mm 3 m/s 753 mmHg 42%
    13:00 +26°C° 0 mm 4 m/s 753 mmHg 40%
    14:00 +25°C° 0 mm 3 m/s 752 mmHg 41%
    15:00 +24°C° 0 mm 3 m/s 752 mmHg 43%
    16:00 +24°C° 0 mm 2 m/s 752 mmHg 45%
    17:00 +21°C° 0 mm 2 m/s 752 mmHg 48%
    18:00 +20°C° 0 mm 2 m/s 752 mmHg 52%
    19:00 +19°C° 0 mm 2 m/s 752 mmHg 56%
    20:00 +18°C° 0 mm 2 m/s 753 mmHg 57%
    21:00 +18°C° 0 mm 2 m/s 753 mmHg 58%
    22:00 +18°C° 0 mm 2 m/s 753 mmHg 59%
    23:00 +17°C° 0 mm 2 m/s 754 mmHg 61%

    Après-demain, 20 Octobre, Dimanche

    Heure Température Précipitation Vent Pression Humidité
    00:00 +17°C° 0 mm 2 m/s 754 mmHg 64%
    01:00 +17°C° 0 mm 2 m/s 754 mmHg 67%
    02:00 +16°C° 0 mm 2 m/s 754 mmHg 69%
    03:00 +16°C° 0 mm 2 m/s 754 mmHg 70%
    04:00 +16°C° 0 mm 2 m/s 754 mmHg 72%
    05:00 +16°C° 0 mm 2 m/s 754 mmHg 70%
    06:00 +16°C° 0 mm 2 m/s 754 mmHg 68%
    07:00 +16°C° 0 mm 2 m/s 754 mmHg 66%
    08:00 +18°C° 0 mm 3 m/s 754 mmHg 59%
    09:00 +21°C° 0 mm 3 m/s 754 mmHg 52%
    10:00 +24°C° 0 mm 3 m/s 754 mmHg 45%
    11:00 +25°C° 0 mm 4 m/s 754 mmHg 42%
    12:00 +26°C° 0 mm 4 m/s 754 mmHg 38%
    13:00 +27°C° 0 mm 4 m/s 754 mmHg 35%
    14:00 +26°C° 0 mm 4 m/s 754 mmHg 37%
    15:00 +25°C° 0 mm 3 m/s 753 mmHg 39%
    16:00 +25°C° 0 mm 3 m/s 753 mmHg 41%
    17:00 +22°C° 0 mm 3 m/s 753 mmHg 45%
    18:00 +21°C° 0 mm 3 m/s 754 mmHg 48%
    19:00 +20°C° 0 mm 3 m/s 754 mmHg 52%
    20:00 +19°C° 0 mm 3 m/s 754 mmHg 53%
    21:00 +19°C° 0 mm 3 m/s 754 mmHg 54%
    22:00 +19°C° 0 mm 3 m/s 754 mmHg 55%
    23:00 +18°C° 0 mm 3 m/s 754 mmHg 57%

    21 Octobre, Lundi

    Heure Température Précipitation Vent Pression Humidité
    00:00 +18°C° 0 mm 3 m/s 754 mmHg 59%
    01:00 +17°C° 0 mm 3 m/s 754 mmHg 62%
    02:00 +17°C° 0 mm 3 m/s 754 mmHg 63%
    03:00 +17°C° 0 mm 3 m/s 754 mmHg 64%
    04:00 +17°C° 0 mm 3 m/s 754 mmHg 64%
    05:00 +17°C° 0 mm 4 m/s 754 mmHg 64%
    06:00 +17°C° 0 mm 4 m/s 754 mmHg 63%
    07:00 +17°C° 0 mm 4 m/s 754 mmHg 62%
    08:00 +20°C° 0 mm 4 m/s 754 mmHg 55%
    09:00 +22°C° 0 mm 4 m/s 755 mmHg 48%
    10:00 +25°C° 0 mm 4 m/s 755 mmHg 41%
    11:00 +26°C° 0 mm 5 m/s 755 mmHg 38%
    12:00 +27°C° 0 mm 5 m/s 755 mmHg 35%
    13:00 +28°C° 0 mm 5 m/s 755 mmHg 32%
    14:00 +28°C° 0 mm 5 m/s 754 mmHg 35%
    15:00 +27°C° 0 mm 4 m/s 754 mmHg 37%
    16:00 +26°C° 0 mm 3 m/s 754 mmHg 40%
    17:00 +25°C° 0 mm 3 m/s 754 mmHg 45%
    18:00 +22°C° 0 mm 3 m/s 755 mmHg 50%
    19:00 +21°C° 0 mm 3 m/s 755 mmHg 55%
    20:00 +20°C° 0 mm 2 m/s 755 mmHg 57%
    21:00 +20°C° 0 mm 2 m/s 755 mmHg 59%
    22:00 +20°C° 0 mm 2 m/s 756 mmHg 61%
    23:00 +19°C° 0 mm 2 m/s 756 mmHg 64%

    22 Octobre, Mardi

    Heure Température Précipitation Vent Pression Humidité
    00:00 +18°C° 0 mm 2 m/s 756 mmHg 66%
    01:00 +18°C° 0 mm 2 m/s 756 mmHg 68%
    02:00 +17°C° 0 mm 2 m/s 756 mmHg 71%
    03:00 +18°C° 0 mm 1 m/s 756 mmHg 74%
    04:00 +16°C° 0 mm 1 m/s 757 mmHg 77%
    05:00 +16°C° 0 mm 1 m/s 757 mmHg 78%
    06:00 +16°C° 0 mm 1 m/s 757 mmHg 80%
    07:00 +16°C° 0 mm 1 m/s 757 mmHg 81%
    08:00 +19°C° 0 mm 1 m/s 757 mmHg 74%
    09:00 +21°C° 0 mm 1 m/s 758 mmHg 66%
    10:00 +23°C° 0 mm 1 m/s 758 mmHg 59%
    11:00 +24°C° 0 mm 2 m/s 758 mmHg 55%
    12:00 +25°C° 0 mm 2 m/s 758 mmHg 51%
    13:00 +26°C° 0 mm 2 m/s 758 mmHg 47%
    14:00 +25°C° 0 mm 2 m/s 758 mmHg 48%
    15:00 +25°C° 0 mm 2 m/s 757 mmHg 50%
    16:00 +24°C° 0 mm 1 m/s 757 mmHg 52%
    17:00 +23°C° 0 mm 2 m/s 757 mmHg 56%
    18:00 +21°C° 0 mm 2 m/s 758 mmHg 59%
    19:00 +20°C° 0 mm 2 m/s 758 mmHg 63%
    20:00 +19°C° 0 mm 2 m/s 758 mmHg 67%
    21:00 +18°C° 0 mm 2 m/s 758 mmHg 70%
    22:00 +17°C° 0 mm 2 m/s 758 mmHg 74%
    23:00 +17°C° 0 mm 2 m/s 758 mmHg 76%

    23 Octobre, Mercredi

    Heure Température Précipitation Vent Pression Humidité
    00:00 +16°C° 0 mm 2 m/s 758 mmHg 78%
    01:00 +16°C° 0 mm 2 m/s 758 mmHg 80%
    02:00 +16°C° 0 mm 2 m/s 758 mmHg 81%
    03:00 +15°C° 0 mm 2 m/s 758 mmHg 82%
    04:00 +15°C° 0 mm 2 m/s 758 mmHg 82%
    05:00 +15°C° 0 mm 2 m/s 758 mmHg 81%
    06:00 +14°C° 0 mm 2 m/s 758 mmHg 80%
    07:00 +14°C° 0 mm 2 m/s 758 mmHg 79%
    08:00 +16°C° 0 mm 2 m/s 758 mmHg 71%
    09:00 +18°C° 0 mm 2 m/s 758 mmHg 63%
    10:00 +21°C° 0 mm 2 m/s 758 mmHg 55%
    11:00 +23°C° 0 mm 2 m/s 757 mmHg 51%
    12:00 +24°C° 0 mm 2 m/s 757 mmHg 47%
    13:00 +26°C° 0 mm 2 m/s 757 mmHg 43%
    14:00 +25°C° 0 mm 2 m/s 756 mmHg 44%
    15:00 +25°C° 0 mm 2 m/s 756 mmHg 46%
    16:00 +25°C° 0 mm 2 m/s 756 mmHg 47%
    17:00 +23°C° 0 mm 2 m/s 756 mmHg 51%
    18:00 +21°C° 0 mm 2 m/s 756 mmHg 55%
    19:00 +19°C° 0 mm 2 m/s 756 mmHg 59%
    20:00 +19°C° 0 mm 2 m/s 756 mmHg 59%
    21:00 +18°C° 0 mm 2 m/s 756 mmHg 60%
    22:00 +18°C° 0 mm 2 m/s 756 mmHg 61%
    23:00 +18°C° 0 mm 2 m/s 756 mmHg 61%
    Voir plus